Location: Unspecified
(51.9670°N, 0.0000°E)
Time: 03:11:45
(UTC+00:00)

USA 81 - Visible Passes

Search period start: 04 April 2026 00:00
Search period end: 14 April 2026 00:00
Orbit: 783 x 785 km, 85.0° (Epoch: 29 March)

Date Brightness Start Highest point End Pass type
(mag) Time Alt. Az. Time Alt. Az. Time Alt. Az.
4 Apr 7.7 04:18:57 10° NE 04:19:33 10° ENE 04:20:07 10° ENE visible
4 Apr 6.7 20:43:23 10° WSW 20:47:16 20° WNW 20:51:09 10° NNW visible
5 Apr 6.1 20:10:32 10° SW 20:15:10 31° WNW 20:19:49 10° N visible
6 Apr 5.3 19:38:06 10° SSW 19:43:10 47° WNW 19:48:17 10° N visible
7 Apr 7.3 04:22:35 10° NNE 04:25:41 15° ENE 04:28:47 10° E visible
7 Apr 7.2 20:50:41 10° W 20:53:20 14° WNW 20:56:00 10° NNW visible
8 Apr 6.9 20:17:12 10° WSW 20:21:07 21° WNW 20:25:04 10° NNW visible
9 Apr 6.2 19:44:22 10° SW 19:49:01 31° WNW 19:53:43 10° N visible
10 Apr 7.0 04:27:35 10° NNE 04:31:44 23° ENE 04:35:51 10° ESE visible
11 Apr 7.4 03:56:31 10° NNE 03:59:33 15° ENE 04:02:34 10° E visible
11 Apr 7.3 20:24:27 10° W 20:27:11 14° WNW 20:29:56 10° NNW visible
12 Apr 7.0 19:51:01 10° WSW 19:54:58 21° WNW 19:58:58 10° NNW visible
13 Apr 6.3 19:18:13 10° SW 19:22:53 32° WNW 19:27:37 10° N visible
